Powrót do katalogu

STARLINK-32018

AktywnyŁącznośćVLEO
NORAD 60105·PAYLOAD·🇺🇸 United States

Wystrzelony Jun 23, 2024 z Cape Canaveral Space Force Station

Loading…

Następne Przeloty (najbliższe 24 godziny)

TLE

ŚwieżeSource: CelesTrak SupGP

Epoka: Sep 14, 2026, 22:13 UTC

1 60105C 24117Q   26257.92618056  .00030684  00000+0  90639-3 0  2573
2 60105  53.1571 235.5500 0001450  96.5035 346.4377 15.34380841    16

Śledź STARLINK-32018 w czasie rzeczywistym z AllMySat

Download on the App Store